Station History from Weather Underground


Station Historical Data
 
Daily Summary for January 27, 2020 Units:  English    Metric   Both
« Previous Day
Next Day »
Daily Weekly Monthly Yearly Custom
  Current: High: Low: Average:
Temperature: 24.3 °F 24.3 °F 23.3 °F 23.9 °F
Dew Point: 20.7 °F 20.7 °F 19.7 °F 20.2 °F
Humidity: 86% 86% 84% 86%
Wind Speed: 0mph 1mph 0mph 0mph
Wind Gust: 2mph 5mph - -
WindCalm - - NE
Pressure: 30.08 in 30.08 in 30.01 in -
Precipitation: 0 in      
Historical Graphs
 
 
Tabular Data for January 27, 2020
Time Temperature Dew Point Pressure Wind Wind Speed Wind Gust Humidity Rainfall Rate (Hourly) solar Conditions
00:00 24.1 °F 20 °F 30.01 in Calm     84% 0 in 0.00 W/m2 RA
00:05 24.1 °F 20 °F 30.01 in Calm   1 mph 84% 0 in 0.00 W/m2 RA
00:10 24.1 °F 20 °F 30.01 in Calm   1 mph 84% 0 in 0.00 W/m2 CLR
00:15 24.1 °F 19.9 °F 30.01 in Calm     84% 0 in 0.00 W/m2 CLR
00:20 24.1 °F 20.2 °F 30.01 in Calm   3 mph 85% 0 in 0.00 W/m2 CLR
00:25 24.1 °F 20 °F 30.01 in Calm   3 mph 84% 0 in 0.00 W/m2 CLR
00:30 24.1 °F 20.2 °F 30.01 in Calm   2 mph 85% 0 in 0.00 W/m2 CLR
00:35 24.1 °F 20.2 °F 30.02 in Calm   3 mph 85% 0 in 0.00 W/m2 CLR
00:40 24.1 °F 20.2 °F 30.01 in Calm   3 mph 85% 0 in 0.00 W/m2 CLR
00:45 24.1 °F 20.2 °F 30.01 in Calm     85% 0 in 0.00 W/m2 CLR
00:50 24.1 °F 20.2 °F 30.01 in NNE 1 mph 4 mph 85% 0 in 0.00 W/m2 CLR
00:55 24.1 °F 20.2 °F 30.01 in Calm     85% 0 in 0.00 W/m2 CLR
01:00 24.2 °F 20.3 °F 30.01 in Calm   2 mph 85% 0 in 0.00 W/m2 CLR
01:05 24.2 °F 20.3 °F 30.01 in Calm   3 mph 85% 0 in 0.00 W/m2 CLR
01:10 24.1 °F 20.2 °F 30.01 in Calm   2 mph 85% 0 in 0.00 W/m2 CLR
01:15 24.2 °F 20.3 °F 30.01 in Calm     85% 0 in 0.00 W/m2 CLR
01:20 24.2 °F 20.6 °F 30.01 in Calm     86% 0 in 0.00 W/m2 CLR
01:25 24.2 °F 20.6 °F 30.01 in Calm     86% 0 in 0.00 W/m2 CLR
01:30 24.2 °F 20.3 °F 30.01 in Calm     85% 0 in 0.00 W/m2 CLR
01:35 24.2 °F 20.3 °F 30.01 in Calm   2 mph 85% 0 in 0.00 W/m2 CLR
01:40 24.1 °F 20.2 °F 30.01 in Calm   3 mph 85% 0 in 0.00 W/m2 CLR
01:45 24.1 °F 20.5 °F 30.01 in NNE 1 mph 5 mph 86% 0 in 0.00 W/m2 CLR
01:50 24 °F 20.1 °F 30.02 in NE 1 mph 3 mph 85% 0 in 0.00 W/m2 CLR
01:55 24 °F 20.4 °F 30.02 in Calm     86% 0 in 0.00 W/m2 CLR
02:00 23.9 °F 20.3 °F 30.02 in Calm     86% 0 in 0.00 W/m2 CLR
02:05 23.9 °F 20.3 °F 30.02 in Calm     86% 0 in 0.00 W/m2 CLR
02:10 23.9 °F 20.3 °F 30.02 in Calm   3 mph 86% 0 in 0.00 W/m2 CLR
02:15 23.9 °F 20.3 °F 30.02 in Calm     86% 0 in 0.00 W/m2 CLR
02:20 23.9 °F 20.3 °F 30.02 in Calm   2 mph 86% 0 in 0.00 W/m2 CLR
02:25 23.9 °F 20.3 °F 30.02 in Calm   1 mph 86% 0 in 0.00 W/m2 CLR
02:30 23.9 °F 20.3 °F 30.03 in Calm     86% 0 in 0.00 W/m2 CLR
02:35 23.9 °F 20.3 °F 30.03 in Calm     86% 0 in 0.00 W/m2 CLR
02:40 23.9 °F 20.3 °F 30.03 in Calm   2 mph 86% 0 in 0.00 W/m2 CLR
02:45 23.9 °F 20.3 °F 30.03 in Calm     86% 0 in 0.00 W/m2 CLR
02:50 23.9 °F 20.3 °F 30.03 in Calm     86% 0 in 0.00 W/m2 CLR
02:55 23.9 °F 20.3 °F 30.02 in Calm     86% 0 in 0.00 W/m2 CLR
03:00 23.9 °F 20.3 °F 30.02 in Calm   2 mph 86% 0 in 0.00 W/m2 CLR
03:05 23.9 °F 20.3 °F 30.02 in Calm     86% 0 in 0.00 W/m2 CLR
03:10 23.9 °F 20.3 °F 30.03 in Calm   2 mph 86% 0 in 0.00 W/m2 CLR
03:15 23.8 °F 20.2 °F 30.02 in Calm   4 mph 86% 0 in 0.00 W/m2 CLR
03:20 23.8 °F 20.2 °F 30.03 in Calm     86% 0 in 0.00 W/m2 CLR
03:25 23.7 °F 20.1 °F 30.03 in Calm     86% 0 in 0.00 W/m2 CLR
03:30 23.6 °F 20 °F 30.03 in Calm     86% 0 in 0.00 W/m2 CLR
03:35 23.6 °F 20 °F 30.03 in Calm     86% 0 in 0.00 W/m2 CLR
03:40 23.5 °F 19.9 °F 30.04 in Calm     86% 0 in 0.00 W/m2 CLR
03:45 23.5 °F 19.9 °F 30.04 in Calm     86% 0 in 0.00 W/m2 CLR
03:50 23.5 °F 19.9 °F 30.04 in Calm     86% 0 in 0.00 W/m2 CLR
03:55 23.4 °F 19.8 °F 30.04 in Calm   2 mph 86% 0 in 0.00 W/m2 CLR
04:00 23.4 °F 19.8 °F 30.04 in Calm   2 mph 86% 0 in 0.00 W/m2 CLR
04:05 23.4 °F 19.8 °F 30.04 in Calm     86% 0 in 0.00 W/m2 CLR
04:10 23.4 °F 19.8 °F 30.04 in Calm   1 mph 86% 0 in 0.00 W/m2 CLR
04:15 23.4 °F 19.8 °F 30.04 in Calm   3 mph 86% 0 in 0.00 W/m2 CLR
04:20 23.3 °F 19.7 °F 30.04 in Calm   5 mph 86% 0 in 0.00 W/m2 CLR
04:25 23.3 °F 19.7 °F 30.04 in Calm     86% 0 in 0.00 W/m2 CLR
04:30 23.4 °F 19.8 °F 30.04 in Calm   2 mph 86% 0 in 0.00 W/m2 CLR
04:35 23.4 °F 19.8 °F 30.04 in Calm     86% 0 in 0.00 W/m2 CLR
04:40 23.4 °F 19.8 °F 30.04 in Calm     86% 0 in 0.00 W/m2 CLR
04:45 23.4 °F 19.8 °F 30.04 in Calm     86% 0 in 0.00 W/m2 CLR
04:50 23.5 °F 19.9 °F 30.04 in Calm     86% 0 in 0.00 W/m2 CLR
04:55 23.5 °F 19.9 °F 30.04 in Calm     86% 0 in 0.00 W/m2 CLR
05:00 23.5 °F 19.9 °F 30.04 in Calm     86% 0 in 0.00 W/m2 CLR
05:05 23.6 °F 20 °F 30.05 in Calm     86% 0 in 0.00 W/m2 CLR
05:10 23.6 °F 20 °F 30.05 in Calm   2 mph 86% 0 in 0.00 W/m2 CLR
05:15 23.7 °F 20.1 °F 30.05 in Calm     86% 0 in 0.00 W/m2 CLR
05:20 23.7 °F 20.1 °F 30.05 in Calm     86% 0 in 0.00 W/m2 CLR
05:25 23.7 °F 20.1 °F 30.05 in Calm     86% 0 in 0.00 W/m2 CLR
05:30 23.8 °F 20.2 °F 30.05 in Calm     86% 0 in 0.00 W/m2 CLR
05:35 23.8 °F 20.2 °F 30.05 in Calm     86% 0 in 0.00 W/m2 CLR
05:40 23.8 °F 20.2 °F 30.05 in Calm     86% 0 in 0.00 W/m2 CLR
05:45 23.8 °F 20.2 °F 30.05 in Calm     86% 0 in 0.00 W/m2 CLR
05:50 23.9 °F 20.3 °F 30.05 in Calm     86% 0 in 0.00 W/m2 CLR
05:55 23.9 °F 20.3 °F 30.05 in Calm     86% 0 in 0.00 W/m2 CLR
06:00 23.9 °F 20.3 °F 30.05 in Calm     86% 0 in 0.00 W/m2 CLR
06:05 23.9 °F 20.3 °F 30.05 in Calm     86% 0 in 0.00 W/m2 CLR
06:10 23.9 °F 20.3 °F 30.05 in Calm   1 mph 86% 0 in 0.00 W/m2 CLR
06:15 23.9 °F 20.3 °F 30.05 in Calm     86% 0 in 0.00 W/m2 CLR
06:20 24 °F 20.4 °F 30.06 in Calm     86% 0 in 0.00 W/m2 CLR
06:25 24 °F 20.4 °F 30.06 in Calm     86% 0 in 0.00 W/m2 CLR
06:30 24 °F 20.4 °F 30.06 in Calm   2 mph 86% 0 in 0.00 W/m2 CLR
06:35 24 °F 20.4 °F 30.07 in Calm     86% 0 in 0.00 W/m2 CLR
06:40 24.1 °F 20.5 °F 30.07 in Calm     86% 0 in 0.00 W/m2 CLR
06:45 24.1 °F 20.5 °F 30.07 in Calm     86% 0 in 0.00 W/m2 CLR
06:50 24.1 °F 20.5 °F 30.07 in Calm     86% 0 in 0.00 W/m2 CLR
06:55 24.2 °F 20.6 °F 30.07 in Calm     86% 0 in 0.00 W/m2 CLR
07:00 24.2 °F 20.6 °F 30.07 in Calm     86% 0 in 0.00 W/m2 CLR
07:05 24.2 °F 20.6 °F 30.07 in Calm     86% 0 in 0.00 W/m2 CLR
07:10 24.2 °F 20.6 °F 30.08 in Calm     86% 0 in 0.00 W/m2 OVC
07:15 24.3 °F 20.7 °F 30.08 in Calm     86% 0 in 0.00 W/m2 OVC
07:20 24.3 °F 20.7 °F 30.08 in Calm     86% 0 in 0.00 W/m2 OVC
07:25 24.3 °F 20.7 °F 30.08 in Calm     86% 0 in 0.00 W/m2 OVC
07:30 24.3 °F 20.7 °F 30.08 in Calm   2 mph 86% 0 in 0.00 W/m2 OVC
Coon Rapids Weather